SCP
-0 0 0 0 0 0 -0 -0 -0 0 0 0 0 0 0 0 0 0 0 0 0 0
0 0 1 0 -0 0 0 0 0 0 0 0 0 0 0 0 -0 0 0 0 0 0
0 0 1 1 0 0 0 0 1 1 1 0 1 0 0 0 0 -0 -0 0 0 0
0 0 1 1 1 0 0 0 1 1 1 1 0 1 1 1 0 0 0 0 0 0
0 0 1 1 1 0 1 1 1 1 0 0 0 0 1 1 1 1 1 0 0 0
0 0 0 0 1 1 1 1 1 1 1 1 1 1 1 1 1 1 1 1 1 0
0 1 1 1 1 1 1 1 2 2 1 2 1 1 1 1 1 1 0 1 1 1
1 1 1 1 1 1 1 2 1 2 2 2 2 2 2 1 1 1 1 1 0 0
1 1 1 1 1 1 1 1 2 1 2 1 1 1 1 1 1 1 1 1 1 1
1 1 1 1 1 1 1 1 1 2 1 1 1 1 1 0 0 1 1 2 1 1
1 1 1 1 0 1 1 1 2 1 1 1 1 1 1 1 0 0 0 1 1 2
2 2 2 1 1 1 2 2 2 2 1 1 1 0 0 0 0 0 0 1 1 2
2 2 1 1 1 2 2 3 2 1 1 1 1 0 0 0 0 0 0 1 1 1
1 1 0 1 1 1 1 1 0 0 0 0 0 0 0 0 0 0 1 0 1 1
Wind_Speed_500mb
67 62 32 52 43 26 29 34 36 30 23 20 30 33 28 28 32 35 34 31 27 26
73 65 42 54 41 28 35 38 46 42 34 27 24 30 27 28 25 26 28 28 27 28
65 66 49 55 54 46 43 20 32 50 40 33 34 36 35 27 28 27 20 21 26 29
68 67 62 55 56 58 45 20 30 37 38 30 32 38 38 33 31 33 32 33 30 32
66 73 70 67 61 56 58 44 30 37 34 32 28 35 40 39 36 41 40 30 29 29
68 67 73 75 72 63 63 57 47 42 45 46 40 37 39 42 40 39 42 39 41 39
66 67 64 66 77 72 66 66 60 61 57 49 47 46 45 45 47 46 45 47 52 46
54 60 62 60 59 67 78 74 68 64 63 65 60 57 52 50 52 53 54 54 52 57
62 59 62 62 55 56 60 72 72 66 58 56 56 58 55 54 54 57 56 54 52 52
65 59 57 61 60 58 58 57 56 57 54 55 56 57 61 60 57 57 59 65 64 61
63 59 56 59 63 64 59 58 59 53 53 57 62 62 64 64 63 67 68 66 63 67
56 56 60 63 67 66 65 66 59 60 55 50 53 60 63 62 68 75 77 78 81 84
36 45 53 59 64 69 70 69 67 65 53 62 49 67 68 67 70 69 69 71 76 76
38 45 55 59 63 68 70 62 43 55 50 37 49 61 65 71 70 68 56 66 74 69
Wind_Direction_500mb
197 200 209 201 202 207 210 210 205 209 210 214 214 224 236 234 231 230 230 238 244 242
203 208 199 195 198 209 217 236 229 216 214 220 234 232 233 238 231 231 235 241 244 246
204 206 195 191 200 207 222 235 216 217 219 229 236 230 232 237 233 235 243 249 255 248
211 212 207 203 205 207 217 210 203 220 222 239 229 227 232 238 239 240 245 251 261 262
212 215 215 215 212 212 215 221 223 222 232 239 238 231 239 245 246 240 247 249 258 271
223 219 218 219 221 224 218 223 228 229 238 248 251 245 240 250 261 258 249 260 267 272
223 225 224 223 224 225 227 226 230 240 243 247 251 252 249 249 253 255 251 258 263 266
225 229 228 228 230 228 227 234 235 239 249 250 254 257 252 252 254 260 262 260 257 257
224 228 231 231 231 231 229 231 240 245 246 250 255 255 256 261 262 264 266 271 273 272
222 227 234 234 235 233 234 237 236 241 249 256 259 260 264 260 260 264 267 268 269 271
223 229 237 238 236 234 234 235 239 239 247 255 262 264 266 265 263 258 262 264 269 273
226 234 239 240 239 232 233 233 230 234 244 257 271 277 271 270 268 265 263 264 265 267
228 238 235 237 234 228 227 229 236 238 249 255 275 270 263 263 265 267 270 269 273 274
233 235 238 236 238 232 230 224 229 247 256 252 250 261 274 279 276 275 278 285 278 268
Wind_Speed_850mb
67 62 32 52 43 26 29 34 36 30 23 20 30 33 28 28 32 35 34 31 27 26
73 65 42 54 41 28 35 38 46 42 34 27 24 30 27 28 25 26 28 28 27 28
65 66 49 55 54 46 43 20 32 50 40 33 34 36 35 27 28 27 20 21 26 29
68 67 62 55 56 58 45 20 30 37 38 30 32 38 38 33 31 33 32 33 30 32
66 73 70 67 61 56 58 44 30 37 34 32 28 35 40 39 36 41 40 30 29 29
68 67 73 75 72 63 63 57 47 42 45 46 40 37 39 42 40 39 42 39 41 39
66 67 64 66 77 72 66 66 60 61 57 49 47 46 45 45 47 46 45 47 52 46
54 60 62 60 59 67 78 74 68 64 63 65 60 57 52 50 52 53 54 54 52 57
62 59 62 62 55 56 60 72 72 66 58 56 56 58 55 54 54 57 56 54 52 52
65 59 57 61 60 58 58 57 56 57 54 55 56 57 61 60 57 57 59 65 64 61
63 59 56 59 63 64 59 58 59 53 53 57 62 62 64 64 63 67 68 66 63 67
56 56 60 63 67 66 65 66 59 60 55 50 53 60 63 62 68 75 77 78 81 84
36 45 53 59 64 69 70 69 67 65 53 62 49 67 68 67 70 69 69 71 76 76
38 45 55 59 63 68 70 62 43 55 50 37 49 61 65 71 70 68 56 66 74 69
Wind_Direction_850mb
197 200 209 201 202 207 210 210 205 209 210 214 214 224 236 234 231 230 230 238 244 242
203 208 199 195 198 209 217 236 229 216 214 220 234 232 233 238 231 231 235 241 244 246
204 206 195 191 200 207 222 235 216 217 219 229 236 230 232 237 233 235 243 249 255 248
211 212 207 203 205 207 217 210 203 220 222 239 229 227 232 238 239 240 245 251 261 262
212 215 215 215 212 212 215 221 223 222 232 239 238 231 239 245 246 240 247 249 258 271
223 219 218 219 221 224 218 223 228 229 238 248 251 245 240 250 261 258 249 260 267 272
223 225 224 223 224 225 227 226 230 240 243 247 251 252 249 249 253 255 251 258 263 266
225 229 228 228 230 228 227 234 235 239 249 250 254 257 252 252 254 260 262 260 257 257
224 228 231 231 231 231 229 231 240 245 246 250 255 255 256 261 262 264 266 271 273 272
222 227 234 234 235 233 234 237 236 241 249 256 259 260 264 260 260 264 267 268 269 271
223 229 237 238 236 234 234 235 239 239 247 255 262 264 266 265 263 258 262 264 269 273
226 234 239 240 239 232 233 233 230 234 244 257 271 277 271 270 268 265 263 264 265 267
228 238 235 237 234 228 227 229 236 238 249 255 275 270 263 263 265 267 270 269 273 274
233 235 238 236 238 232 230 224 229 247 256 252 250 261 274 279 276 275 278 285 278 268